Regional Weather Roundup
Issued by NWS Green Bay, WI

Home | Current Version | Previous Version | Text Only | Print | Product List | Glossary On
Versions: 1 2 3 4 5 6 7 8 9 10 11 12 13 14 15 16 17 18 19 20 21 22 23 24 25 26 27 28 29 30 31 32 33 34 35 36 37 38 39 40 41 42 43 44 45 46 47 48 49 50
000
ASUS43 KGRB 210559
RWRGRB

NORTH-CENTRAL AND NORTHEAST WISCONSIN REGIONAL WEATHER ROUNDUP
NATIONAL WEATHER SERVICE GREEN BAY WI
100 AM CDT TUE APR 21 2015

WIZ005-009-010>012-018-019-210700-
NORTH CENTRAL WISCONSIN

CITY           SKY/WX    TMP DP  RH WIND       PRES   REMARKS
IRONWOOD       CLOUDY    32  30  93 W15       29.29S
MANITOWISH WTR NOT AVBL
ARBOR VITAE    NOT AVBL
EAGLE RIVER    NOT AVBL
LAND O LAKES   NOT AVBL
RHINELANDER    CLOUDY    33  27  78 W14G22    29.35F
PHILLIPS       NOT AVBL
ANTIGO         NOT AVBL
TOMAHAWK       NOT AVBL
MERRILL        NOT AVBL
$$

WIZ013-073-210700-
NORTHEAST WISCONSIN

CITY           SKY/WX    TMP DP  RH WIND       PRES   REMARKS
IRON MOUNTAIN  CLOUDY    36  29  75 SW9       29.31F
MARINETTE      CLOUDY    37  28  70 W9G16     29.39S
$$

WIZ017-030-035>037-045-210700-
CENTRAL WISCONSIN

CITY           SKY/WX    TMP DP  RH WIND       PRES   REMARKS
MEDFORD        NOT AVBL
WAUSAU         CLOUDY    35  29  78 W14       29.39S
MOSINEE        NOT AVBL
MARSHFIELD     FLURRIES  35  31  85 W15G22    29.43S
WISC RAPIDS    CLOUDY    37  27  67 W16G22    29.46S
STEVENS POINT  NOT AVBL
WAUPACA        NOT AVBL
SHAWANO        NOT AVBL
CLINTONVILLE   NOT AVBL
$$

WIZ038-039-048-051-210700-
FOX VALLEY

CITY           SKY/WX    TMP DP  RH WIND       PRES   REMARKS
NWS GREEN BAY  CLOUDY    41  29  62 SW10      29.44S
APPLETON       NOT AVBL
OSHKOSH        CLOUDY    40  29  64 SW8       29.46F
FOND DU LAC    CLOUDY    40  28  62 SW10      29.48F
$$

WIZ022-050-052-210700-
EAST CENTRAL WISCONSIN

CITY           SKY/WX    TMP DP  RH WIND       PRES   REMARKS
STURGEON BAY   CLOUDY    39  28  65 SW15G21   29.42F
MANITOWOC      NOT AVBL
SHEBOYGAN      CLOUDY    40  30  67 W10       29.48R
$$

LMZ563-521-522-541>543-210700-
LAKESHORE

STATION/POSITION TIME  TEMP    WIND        PRES    VSBY  WAVE
                       AIR SEA DIR/SP/G                  HT/PER
                 (UTC) (F)     (DEG/KT/KT) (MB)    (MI)  (FT/S)
SHEBOYGAN LKSHOR 0500   42     240/ 13/ 16  999.0F
KEWAUNEE LKSHORE 0500   41     240/  9/ 15  996.4F
NORTHPORT PIER   0500   39     230/  6/ 11  995.6S
SISTER BAY LKSHO 0500   40     250/ 15/ 16   N/A
CHAMBERS ISLAND  0500   39     210/  8/ 12  995.6F
MENOMINEE LKSHOR 0500   40     230/ 11/ 16  996.4R
$$


USA.gov is the U.S. government's official web portal to all federal, state and local government web resources and services.